User: anonymous   Login
Location: Sungai Bunut
(2.6333°N, 113.7333°E)
Time: 09:55:33
(UTC+00:00)
Language:

Cosmos 1184 Rocket - Orbit

View from above orbital plane
View from above orbital plane
View from above satellite
View from above satellite

Ground track
Ground track

The orbit data is extracted from the following two-line orbital elements,

1 11822U 80044B   22017.92766341  .00014545  00000-0  20480-3 0  9996
2 11822  81.2275 346.0600 0009280 157.8105 202.3549 15.56446284292739
Epoch (UTC): 17 January 2022 22:15:50
Eccentricity: 0.0009280
inclination: 81.2275°
perigee height: 391 km
apogee height: 404 km
right ascension of ascending node: 346.0600°
argument of perigee: 157.8105°
revolutions per day: 15.56446284
mean anomaly at epoch: 202.3549°
orbit number at epoch: 29273

The dashed part of the orbit path shows where the satellite is in the earth's shadow,  

DLR